Regional Weather Roundup
Issued by NWS

Home | Current Version | Previous Version | Text Only | Print | Product List | Glossary On
Versions: 1 2 3 4 5 6 7 8 9 10 11 12 13 14 15 16 17 18 19 20 21 22 23 24 25 26 27 28 29 30 31 32 33 34 35 36 37 38 39 40 41 42 43 44 45 46 47 48 49 50
000
ASUS45 KPSR 020610
RWRAZ

ARIZONA HOURLY REGIONAL WEATHER ROUNDUP
NATIONAL WEATHER SERVICE PHOENIX AZ
1100 PM MST SAT AUG 01 2015

NOTE: FAIR INDICATES FEW OR NO CLOUDS BELOW 12,000 FEET WITH NO
SIGNIFICANT WEATHER AND/OR OBSTRUCTIONS TO VISIBILITY.

AZZ001>003-036-020700-
NORTHWEST ARIZONA

CITY           SKY/WX    TMP DP  RH WIND       PRES   REMARKS
BULLHEAD CITY  PTCLDY    91  57  31 N13       29.82S
KINGMAN        MOCLDY    73  56  54 SE7       30.02F
6HR MIN TEMP:  73; 6HR MAX TEMP:  84;

$$

AZZ004>008-015-016-018-020700-
NORTH CENTRAL ARIZONA

CITY           SKY/WX    TMP DP  RH WIND       PRES   REMARKS
GRAND CANYON   MOCLDY    61  56  83 NE3       30.23F
6HR MIN TEMP:  61; 6HR MAX TEMP:  73;

WILLIAMS       PTCLDY    63  52  67 S7        30.30F
PRESCOTT       CLEAR     69  61  75 S5        30.11F
6HR MIN TEMP:  69; 6HR MAX TEMP:  85; 6HR PCP: TRACE;

FLAGSTAFF      PTCLDY    58  54  86 CALM      30.27F
6HR MIN TEMP:  58; 6HR MAX TEMP:  75;

PAYSON         MOCLDY    68  59  73 NE7       30.16S
PAGE           CLOUDY    83  54  36 N3        30.03S
6HR MIN TEMP:  82; 6HR MAX TEMP:  91;

$$

AZZ009>014-017-020700-
NORTHEAST ARIZONA

CITY           SKY/WX    TMP DP  RH WIND       PRES   REMARKS
WINSLOW        CLOUDY    73  56  54 SE7       30.12F
6HR MIN TEMP:  73; 6HR MAX TEMP:  80; 6HR PCP: TRACE;

SAINT JOHNS    CLOUDY    67  61  81 E6        30.19F
6HR MIN TEMP:  66; 6HR MAX TEMP:  76;

SHOW LOW       CLOUDY    59  55  88 SW5       30.26S
$$

AZZ023-020700-
GREATER PHOENIX AREA

CITY           SKY/WX    TMP DP  RH WIND       PRES   REMARKS
PHOENIX        PTCLDY    93  65  39 SW5       29.78S
6HR MIN TEMP:  93; 6HR MAX TEMP: 103;

LUKE AFB       CLEAR     93  63  36 NW7       29.78S
DEER VALLEY    CLEAR     94  56  27 NW5       29.81S
6HR MIN TEMP:  94; 6HR MAX TEMP: 102;

SCOTTSDALE     CLEAR     94  58  29 CALM      29.83S
6HR MIN TEMP:  94; 6HR MAX TEMP: 102;

MESA-GATEWAY   PTCLDY    90  61  37 CALM      29.84S
$$

AZZ027-028-020700-
SOUTHWEST MARICOPA COUNTY AND PINAL COUNTY

CITY           SKY/WX    TMP DP  RH WIND       PRES   REMARKS
CASA GRANDE    CLEAR     90  61  37 CALM      29.83S
6HR MIN TEMP:  90; 6HR MAX TEMP: 100;

GILA BEND      FAIR      92  58  31 W6        29.78R
6HR MIN TEMP:  92; 6HR MAX TEMP: 105;

$$

AZZ503-504-507>509-020700-
SOUTHEAST ARIZONA

CITY           SKY/WX    TMP DP  RH WIND       PRES   REMARKS
TUCSON         CLOUDY    81  62  52 SE12      29.98R
6HR MIN TEMP:  80; 6HR MAX TEMP:  87; 6HR PCP:  0.02;

DAVIS-MONTHAN  PTCLDY    80  63  56 S7        29.97R
6HR MIN TEMP:  80; 6HR MAX TEMP:  88; 6HR PCP: TRACE;

NOGALES        CLOUDY    71  61  70 SE14G22   30.08F
6HR MIN TEMP:  69; 6HR MAX TEMP:  84; 6HR PCP: TRACE;

SIERRA VISTA   LGT RAIN  68  61  77 SE2       30.14S
6HR MIN TEMP:  66; 6HR MAX TEMP:  74; 6HR PCP:  0.06;

DOUGLAS          N/A    N/A N/A N/A MISG      30.09R
SAFFORD        MOCLDY    85  57  38 E10       29.97S
6HR MIN TEMP:  84; 6HR MAX TEMP:  96;

$$

AZZ020-021-025-026-031-020700-
SOUTHWEST ARIZONA

CITY           SKY/WX    TMP DP  RH WIND       PRES   REMARKS
YUMA           CLEAR     99  56  23 CALM      29.74S
6HR MIN TEMP:  97; 6HR MAX TEMP: 110;

$$

CAZ031-033-041-043-047-048-061-020700-
SOUTHERN CALIFORNIA

CITY           SKY/WX    TMP DP  RH WIND       PRES   REMARKS
DOWNTOWN L.A.  CLEAR     69  63  81 CALM      29.92R
6HR MIN TEMP:  69; 6HR MAX TEMP:  79;

L.A. AIRPORT   PTCLDY    70  64  81 SW5       29.92S
6HR MIN TEMP:  69; 6HR MAX TEMP:  75;

SAN DIEGO      CLOUDY    70  62  76 NW3       29.95R
6HR MIN TEMP:  70; 6HR MAX TEMP:  75;

BURBANK        CLEAR     71  61  70 E6        29.93S
6HR MIN TEMP:  70; 6HR MAX TEMP:  85;

ONTARIO        PTCLDY    72  60  66 W10       29.93S
6HR MIN TEMP:  72; 6HR MAX TEMP:  90;

RIVERSIDE      CLEAR     73  62  68 W7        29.93R
6HR MIN TEMP:  73; 6HR MAX TEMP:  88;

PALM SPRINGS   PTCLDY    94  55  26 NW12      29.79S
6HR MIN TEMP:  94; 6HR MAX TEMP: 111;

EL CENTRO NAS  CLEAR     91  40  16 W9        29.74S
6HR MIN TEMP:  91; 6HR MAX TEMP: 109;

IMPERIAL       CLEAR     91  46  21 W9        29.72S
6HR MIN TEMP:  89; 6HR MAX TEMP: 109;

BLYTHE         CLEAR     90  56  31 N5        29.77S
6HR MIN TEMP:  90; 6HR MAX TEMP: 104;

NEEDLES        CLEAR     90  57  32 NW6       29.82F
6HR MIN TEMP:  90; 6HR MAX TEMP: 100;

$$

NVZ020-UTZ003-020700-
SOUTHERN NEVADA-UTAH

CITY           SKY/WX    TMP DP  RH WIND       PRES   REMARKS
LAS VEGAS      CLOUDY    83  58  42 W10G20    29.89S
6HR MIN TEMP:  83; 6HR MAX TEMP:  88;

SALT LAKE CITY PTCLDY    76  43  30 S8        29.99F
6HR MIN TEMP:  75; 6HR MAX TEMP:  93;

$$

NMZ009-TXZ055-020700-
NEW MEXICO-WEST TEXAS

CITY           SKY/WX    TMP DP  RH WIND       PRES   REMARKS
ALBUQUERQUE    CLOUDY    67  60  78 SW8       30.24R
6HR MIN TEMP:  66; 6HR MAX TEMP:  87; 6HR PCP:  0.08;

EL PASO        PTCLDY    83  56  39 S12       30.04R
6HR MIN TEMP:  83; 6HR MAX TEMP:  94;

$$


........................KEY........................
SKY/WX - SKY CONDITION/WEATHER
TMP    - TEMPERATURE IN FAHRENHEIT
DP     - DEW POINT IN FAHRENHEIT
RH     - RELATIVE HUMIDITY IN PERCENT
WIND   - DIRECTION AND SPEED IN MILES PER HOUR (MPH)
VRB    - VARIABLE WIND DIRECTION
PRES   - MEAN SEA LEVEL PRESSURE IN INCHES OF MERCURY
         F - FALLING PRESSURE   R - RISING PRESSURE
         S - STEADY PRESSURE
VSB    - VISIBILITY IN MILES
HX     - HEAT INDEX IN FAHRENHEIT
WCI    - WIND CHILL INDEX IN FAHRENHEIT
TC     - TEMPERATURE IN CELSIUS WHICH IS ALSO KNOWN AS
         TEMPERATURE IN CENTIGRADE
AFB    - AIR FORCE BASE
         LUKE AFB IS LUKE AIR FORCE BASE
         DAVIS-MONTHAN IS DAVIS-MONTHAN AIR FORCE BASE
NAS    - NAVAL AIR STATION
         EL CENTRO NAS IS EL CENTRO NAVAL AIR STATION
N/A    - NOT AVAILABLE




USA.gov is the U.S. government's official web portal to all federal, state and local government web resources and services.